STARLINK-33962 (63950 NORAD) Tracking and Keplerian Element Data

This shows tracking and keplerian element data for the satellite.

Feedback or suggestion? Click here.




ElementValue
Catalog63950
NameSTARLINK-33962
Epoch Orbit548
Epoch Day354.00002315
Epoch Year2025
RAAN115.2752
Inclination70.0012
Eccentricity0.0003623
Argument of Perigee279.6076
Mean Anonmoly248.1078
Mean Motion14.98352435
Decay Rate-0.00046559
L11 63950U 25098AA 25354.00002315 -.00046559 00000+0 -39177-2 0 9996
L22 63950 70.0012 115.2752 0003623 279.6076 248.1078 14.98352435 5480



Live tracking and technical data element details for STARLINK-33962 (NORAD 63950). STARLINK-33962 can be tracked NOW for your location showing map with azimuth and elevation plus other details from your city location.







IsCatalogInMostPopularTable: catalog: 63950, numindb: 6
Update: records affected: 1



GetName: 63950 STARLINK-33962

Hit Count: updated at: Mon, 20 Apr 2026 09:34:34 GMT